Middlebury State AP, Middlebu, VT

12:17 AM EDT on October 17, 2019 (GMT -0400)
Middlebury State AP, Middlebu

Weather History for K6B0 - July, 2019

Change the Weather History Date:

Tuesday, July 30, 2019

  Actual Average (WUND) Record (WUND)
Temperature  
Mean Temperature 78 °F -  
Max Temperature 90 °F - - (-1)
Min Temperature 66 °F - - (-1)
Cooling Degree Days 12    
Growing Degree Days 28 (Base 50)    
Moisture  
Dew Point 66 °F    
Average Humidity 77    
Maximum Humidity 98    
Minimum Humidity 45    
Precipitation  
Precipitation 0.64 in - - ()
Sea Level Pressure  
Sea Level Pressure 29.95 in    
Wind  
Wind Speed 4 mph ()    
Max Wind Speed 15 mph    
Max Gust Speed 24 mph    
Visibility 9.3 miles    
Events Rain , Thunderstorm    
Averages and records for this station are not official NWS values.
T = Trace of Precipitation, MM = Missing Value Source: Averaged Metar Reports

Daily Weather History Graph

Daily Weather History Graph

Search for Another Location

Airport or City:

Astronomy

Jul. 30, 2019 Rise Set
Actual Time 5:38 AM EDT 8:18 PM EDT
Civil Twilight 5:04 AM EDT 8:51 PM EDT
Nautical Twilight 4:23 AM EDT 9:33 PM EDT
Astronomical Twilight 3:34 AM EDT 10:21 PM EDT
Moon 3:40 AM EDT (7/30) 7:23 PM EDT (7/30)
Length of Visible Light 15h 46m
Length of Day
14h 40m
Waning Crescent, 3% of the Moon is Illuminated
Jul 30
Waning Crescent
Jul 31
New
Aug 7
First Quarter
Aug 15
Full
Aug 23
Last Quarter

Hourly Weather History & Observations

Time (EDT) Temp. Heat Index Dew Point Humidity Pressure Visibility Wind Dir Wind Speed Gust Speed Precip Events Conditions
12:15 AM 75.6 °F - 66.9 °F 74% 29.94 in 10.0 mi SE 3.5 mph - N/A   Clear
12:16 AM 75.7 °F - 66.9 °F 74% 29.94 in 10.0 mi SE 4.6 mph - N/A   Clear
12:38 AM 76.3 °F - 67.3 °F 74% 29.94 in 10.0 mi South 4.6 mph - N/A   Clear
12:56 AM 75.0 °F - 67.5 °F 77% 29.94 in 10.0 mi South 4.6 mph - N/A   Clear
1:16 AM 73.8 °F - 67.1 °F 80% 29.94 in 10.0 mi SSW 3.5 mph - N/A   Clear
1:35 AM 73.0 °F - 67.3 °F 82% 29.94 in 10.0 mi Calm Calm - N/A   Clear
1:36 AM 73.0 °F - 67.5 °F 83% 29.94 in 10.0 mi Calm Calm - N/A   Clear
1:55 AM 72.5 °F - 67.3 °F 84% 29.94 in 10.0 mi South 3.5 mph - N/A   Clear
1:59 AM 72.7 °F - 67.3 °F 83% 29.94 in 10.0 mi South 3.5 mph - N/A   Clear
2:17 AM 73.9 °F - 66.6 °F 78% 29.93 in 10.0 mi SE 3.5 mph - N/A   Clear
2:35 AM 73.8 °F - 65.7 °F 76% 29.93 in 10.0 mi SSE 3.5 mph - N/A   Clear
2:55 AM 73.2 °F - 65.1 °F 76% 29.93 in 10.0 mi SSE 4.6 mph - N/A   Clear
2:56 AM 73.2 °F - 65.1 °F 76% 29.93 in 10.0 mi SSE 3.5 mph - N/A   Clear
3:15 AM 72.9 °F - 64.9 °F 76% 29.94 in 10.0 mi Calm Calm - N/A   Clear
3:38 AM 72.5 °F - 65.1 °F 78% 29.93 in 10.0 mi Calm Calm - N/A   Clear
3:57 AM 71.2 °F - 65.3 °F 81% 29.94 in 10.0 mi Calm Calm - N/A   Scattered Clouds
4:16 AM 70.2 °F - 65.8 °F 86% 29.94 in 10.0 mi Calm Calm - N/A   Clear
4:35 AM 69.6 °F - 65.3 °F 86% 29.94 in 10.0 mi South 3.5 mph - N/A   Clear
4:36 AM 69.6 °F - 65.3 °F 86% 29.94 in 10.0 mi South 3.5 mph - N/A   Clear
4:55 AM 69.3 °F - 64.9 °F 86% 29.94 in 10.0 mi Calm Calm - N/A   Clear
4:59 AM 69.3 °F - 65.1 °F 87% 29.94 in 10.0 mi South 3.5 mph - N/A   Clear
5:17 AM 69.4 °F - 64.6 °F 84% 29.95 in 10.0 mi Calm Calm - N/A   Clear
5:35 AM 69.8 °F - 64.9 °F 84% 29.95 in 10.0 mi Calm Calm - N/A   Scattered Clouds
5:55 AM 69.1 °F - 64.9 °F 87% 29.95 in 10.0 mi Calm Calm - N/A   Scattered Clouds
5:56 AM 69.1 °F - 64.9 °F 87% 29.95 in 10.0 mi South 3.5 mph - N/A   Scattered Clouds
6:15 AM 69.1 °F - 64.9 °F 87% 29.95 in 10.0 mi Calm Calm - N/A   Clear
6:16 AM 69.3 °F - 64.9 °F 86% 29.95 in 10.0 mi Calm Calm - N/A   Clear
6:39 AM 70.3 °F - 65.7 °F 85% 29.96 in 10.0 mi Calm Calm - N/A   Clear
6:57 AM 70.7 °F - 66.2 °F 86% 29.97 in 10.0 mi Calm Calm - N/A   Clear
7:15 AM 71.8 °F - 66.4 °F 83% 29.96 in 10.0 mi SSE 3.5 mph - N/A   Clear
7:16 AM 72.1 °F - 66.4 °F 82% 29.97 in 10.0 mi SSE 3.5 mph - N/A   Clear
7:35 AM 74.3 °F - 66.9 °F 78% 29.97 in 10.0 mi Calm Calm - N/A   Clear
7:36 AM 74.3 °F - 67.1 °F 78% 29.97 in 10.0 mi Calm Calm - N/A   Clear
7:55 AM 73.9 °F - 67.6 °F 81% 29.97 in 10.0 mi Calm Calm - N/A   Clear
8:00 AM 74.7 °F - 67.8 °F 79% 29.98 in 10.0 mi Calm Calm - N/A   Clear
8:17 AM 75.9 °F - 68.5 °F 78% 29.98 in 10.0 mi Calm Calm - N/A   Clear
8:35 AM 77.2 °F - 68.4 °F 74% 29.98 in 10.0 mi South 6.9 mph - N/A   Clear
8:55 AM 78.1 °F - 68.0 °F 71% 29.98 in 10.0 mi South 4.6 mph - N/A   Clear
8:56 AM 78.3 °F - 68.2 °F 71% 29.98 in 10.0 mi South 4.6 mph - N/A   Clear
9:15 AM 79.0 °F - 67.8 °F 69% 29.97 in 10.0 mi South 10.4 mph - N/A   Clear
9:16 AM 79.0 °F - 67.8 °F 69% 29.97 in 10.0 mi South 12.7 mph - N/A   Clear
9:38 AM 80.1 °F 82.6 °F 67.8 °F 66% 29.97 in 10.0 mi SSE 8.1 mph - N/A   Clear
9:57 AM 81.0 °F 83.8 °F 68.4 °F 65% 29.98 in 10.0 mi South 8.1 mph - N/A   Clear
10:16 AM 81.5 °F 84.6 °F 68.5 °F 65% 29.97 in 10.0 mi South 11.5 mph 17.3 mph N/A   Clear
10:35 AM 82.4 °F 85.8 °F 69.3 °F 64% 29.97 in 10.0 mi South 9.2 mph - N/A   Clear
10:55 AM 82.9 °F 86.5 °F 69.3 °F 63% 29.97 in 10.0 mi SSE 8.1 mph - N/A   Clear
10:59 AM 82.9 °F 86.5 °F 69.1 °F 63% 29.97 in 10.0 mi SSW 8.1 mph - N/A   Clear
11:17 AM 83.3 °F 86.9 °F 69.3 °F 62% 29.97 in 10.0 mi South 8.1 mph - N/A   Clear
11:55 AM 85.5 °F 89.8 °F 69.6 °F 59% 29.96 in 10.0 mi SSW 8.1 mph - N/A   Clear
11:56 AM 85.5 °F 89.4 °F 69.3 °F 58% 29.96 in 10.0 mi SSW 6.9 mph - N/A   Clear
12:15 PM 86.0 °F 89.7 °F 68.7 °F 56% 29.95 in 10.0 mi South 8.1 mph - N/A   Clear
12:16 PM 86.0 °F 89.7 °F 68.7 °F 56% 29.95 in 10.0 mi South 9.2 mph - N/A   Clear
12:39 PM 86.7 °F 91.0 °F 69.1 °F 56% 29.95 in 10.0 mi South 9.2 mph - N/A   Clear
12:57 PM 87.6 °F 91.1 °F 67.8 °F 52% 29.94 in 10.0 mi South 11.5 mph 17.3 mph N/A   Scattered Clouds
1:16 PM 88.0 °F 90.7 °F 66.9 °F 49% 29.94 in 10.0 mi South 11.5 mph 19.6 mph N/A   Scattered Clouds
1:35 PM 88.5 °F 91.6 °F 67.1 °F 49% 29.93 in 10.0 mi South 10.4 mph 18.4 mph N/A   Scattered Clouds
1:36 PM 88.3 °F 91.2 °F 66.9 °F 49% 29.93 in 10.0 mi South 9.2 mph 18.4 mph N/A   Scattered Clouds
1:55 PM 88.7 °F 91.9 °F 67.5 °F 49% 29.92 in 10.0 mi SSW 12.7 mph - N/A   Scattered Clouds
1:59 PM 89.1 °F 92.1 °F 66.9 °F 48% 29.92 in 10.0 mi SSW 10.4 mph - N/A   Scattered Clouds
2:17 PM 89.2 °F 91.6 °F 66.0 °F 46% 29.91 in 10.0 mi SSW 10.4 mph 18.4 mph N/A   Scattered Clouds
2:35 PM 89.2 °F 92.0 °F 66.7 °F 47% 29.91 in 10.0 mi South 12.7 mph 19.6 mph N/A   Scattered Clouds
2:55 PM 89.2 °F 91.6 °F 66.0 °F 46% 29.90 in 10.0 mi South 12.7 mph 18.4 mph N/A   Scattered Clouds
2:56 PM 89.2 °F 91.6 °F 65.8 °F 46% 29.90 in 10.0 mi South 13.8 mph 18.4 mph N/A   Scattered Clouds
3:15 PM 89.4 °F 91.9 °F 66.2 °F 46% 29.90 in 10.0 mi SSW 11.5 mph 18.4 mph N/A   Clear
3:16 PM 89.6 °F 92.2 °F 66.4 °F 46% 29.89 in 10.0 mi South 12.7 mph 18.4 mph N/A   Clear
3:38 PM 89.8 °F 92.1 °F 65.8 °F 45% 29.89 in 10.0 mi South 10.4 mph - N/A   Scattered Clouds
3:57 PM 88.9 °F 91.0 °F 65.7 °F 46% 29.89 in 10.0 mi South 15.0 mph 19.6 mph N/A   Scattered Clouds
4:15 PM 85.8 °F 87.6 °F 64.9 °F 50% 29.93 in 10.0 mi West 12.7 mph 21.9 mph N/A Thunderstorm Thunderstorm
4:35 PM 70.5 °F - 67.1 °F 89% 29.94 in 2.5 mi NNE 3.5 mph - 0.15 in Rain , Thunderstorm Heavy Thunderstorms and Rain
4:55 PM 70.9 °F - 65.8 °F 84% 29.93 in 1.8 mi SE 8.1 mph 24.2 mph 0.42 in Rain , Thunderstorm Thunderstorms and Rain
4:59 PM 71.2 °F - 66.7 °F 86% 29.92 in 5.0 mi SSE 3.5 mph - 0.42 in Rain , Thunderstorm Thunderstorms and Rain
5:17 PM 72.1 °F - 69.4 °F 91% 29.92 in 7.0 mi ESE 5.8 mph - N/A Rain , Thunderstorm Light Thunderstorms and Rain
5:35 PM 72.0 °F - 66.6 °F 83% 30.01 in 10.0 mi SW 10.4 mph 23.0 mph 0.01 in Rain , Thunderstorm Rain
5:55 PM 68.0 °F - 65.8 °F 93% 29.97 in 4.0 mi East 3.5 mph - 0.21 in Rain , Thunderstorm Heavy Thunderstorms and Rain
5:56 PM 68.0 °F - 65.8 °F 93% 29.97 in 4.0 mi ENE 4.6 mph - 0.21 in Rain , Thunderstorm Heavy Thunderstorms and Rain
6:15 PM 68.5 °F - 64.9 °F 88% 29.95 in 10.0 mi ESE 6.9 mph - 0.01 in   Mostly Cloudy
6:16 PM 68.5 °F - 64.9 °F 88% 29.95 in 10.0 mi ESE 8.1 mph - 0.01 in   Mostly Cloudy
6:38 PM 68.9 °F - 64.2 °F 85% 29.97 in 10.0 mi SE 3.5 mph - 0.01 in   Mostly Cloudy
6:56 PM 68.9 °F - 64.9 °F 87% 29.97 in 10.0 mi Calm Calm - 0.01 in   Scattered Clouds
7:16 PM 68.0 °F - 66.4 °F 95% 29.96 in 7.0 mi Calm Calm - N/A   Scattered Clouds
7:35 PM 69.8 °F - 65.3 °F 86% 29.97 in 10.0 mi SE 3.5 mph - N/A Rain Light Rain
7:55 PM 70.0 °F - 64.6 °F 83% 29.96 in 10.0 mi SE 3.5 mph - N/A   Scattered Clouds
8:18 PM 69.3 °F - 64.9 °F 86% 29.96 in 10.0 mi Calm Calm - N/A   Mostly Cloudy
8:35 PM 68.0 °F - 65.7 °F 92% 29.96 in 10.0 mi Calm Calm - N/A   Mostly Cloudy
8:55 PM 67.5 °F - 66.2 °F 96% 29.97 in 10.0 mi Calm Calm - N/A   Mostly Cloudy
8:56 PM 67.5 °F - 66.2 °F 96% 29.97 in 10.0 mi Calm Calm - N/A   Mostly Cloudy
9:15 PM 67.1 °F - 65.7 °F 95% 29.97 in 7.0 mi Calm Calm - N/A   Scattered Clouds
9:16 PM 67.1 °F - 65.7 °F 95% 29.98 in 7.0 mi Calm Calm - N/A   Scattered Clouds
9:38 PM 67.3 °F - 65.1 °F 93% 29.98 in 10.0 mi SSE 3.5 mph - N/A   Scattered Clouds
9:56 PM 68.0 °F - 65.3 °F 91% 29.98 in 10.0 mi Calm Calm - N/A   Clear
10:16 PM 66.7 °F - 65.7 °F 96% 29.99 in 7.0 mi Calm Calm - N/A   Clear
10:35 PM 66.4 °F - 65.7 °F 98% 29.99 in 7.0 mi Calm Calm - N/A   Clear
10:36 PM 66.4 °F - 65.7 °F 98% 29.99 in 5.0 mi Calm Calm - N/A   Clear
10:55 PM 66.2 °F - 65.3 °F 97% 29.99 in 7.0 mi South 3.5 mph - N/A   Scattered Clouds
10:59 PM 66.2 °F - 65.3 °F 97% 29.99 in 10.0 mi South 3.5 mph - N/A   Clear
11:18 PM 66.4 °F - 65.5 °F 97% 29.99 in 7.0 mi Calm Calm - N/A   Scattered Clouds
11:36 PM 67.1 °F - 65.7 °F 95% 29.99 in 10.0 mi Calm Calm - N/A   Scattered Clouds
11:55 PM 67.1 °F - 66.0 °F 96% 29.98 in 7.0 mi Calm Calm - N/A Rain Light Rain
11:56 PM 67.1 °F - 65.8 °F 96% 29.98 in 10.0 mi Calm Calm - N/A Rain Light Rain